Weather History for Newark, NJ

Change the Weather History Date:

Saturday, June 30, 2012

  Actual Average Record
Temperature  
Mean Temperature 87 °F 76 °F  
Max Temperature 97 °F 85 °F 99 °F (1964)
Min Temperature 77 °F 67 °F 55 °F (1940)
Degree Days  
Heating Degree Days 0 0  
Month to date heating degree days 14 15  
Since 1 June heating degree days 14 17  
Since 1 July heating degree days 3707 4872  
Cooling Degree Days 22 11  
Month to date cooling degree days 242 239  
Year to date cooling degree days 375 315  
Since 1 June cooling degree days 242 239  
Growing Degree Days 37 (Base 50)    
Moisture  
Dew Point 60 °F    
Average Humidity 43    
Maximum Humidity 62    
Minimum Humidity 24    
Precipitation  
Precipitation 0.00 in 0.12 in 1.95 in (1984)
Month to date precipitation 5.02 4.02  
Year to date precipitation 18.06 22.91  
Snow  
Snow 0.00 in 0.00 in 0.00 in (2002)
Month to date snowfall 0.0 0.0  
Since 1 July snowfall 8.8 28.5  
Snow Depth 0.00 in    
Sea Level Pressure  
Sea Level Pressure 29.74 in    
Wind  
Wind Speed 10 mph (West)    
Max Wind Speed 20 mph    
Max Gust Speed 26 mph    
Visibility 10 miles    
Events      
T = Trace of Precipitation, MM = Missing Value Source: NWS Daily Summary

Daily Weather History Graph

Daily Weather History Graph

Search for Another Location

Airport:

Trip Planner

Search our weather history database for the weather conditions in past years. The results will help you decide how hot, cold, wet, or windy it might be!

Date:

Astronomy

Jun. 30, 2012 Rise Set
Actual Time 5:29 AM EDT 8:31 PM EDT
Civil Twilight 4:55 AM EDT 9:04 PM EDT
Nautical Twilight 4:13 AM EDT 9:47 PM EDT
Astronomical Twilight 3:23 AM EDT 10:36 PM EDT
Moon 5:24 PM EDT (6/30) 2:22 AM EDT (6/30)
Length of Visible Light 16h 09m
Length of Day
15h 02m
Waxing Gibbous, 87% of the Moon is Illuminated
Jun 30
Waxing Gibbous
Jul 3
Full
Jul 10
Last Quarter
Jul 19
New
Jul 26
First Quarter

Hourly Weather History & Observations

Time (EDT) Temp. Heat Index Dew Point Humidity Pressure Visibility Wind Dir Wind Speed Gust Speed Precip Events Conditions
12:51 AM 86.0 °F 88.8 °F 66.9 °F 53% 29.66 in 10.0 mi WNW 8.1 mph - N/A   Mostly Cloudy
1:51 AM 84.9 °F 84.8 °F 60.1 °F 43% 29.68 in 10.0 mi North 8.1 mph - N/A   Overcast
2:51 AM 84.0 °F 84.5 °F 62.1 °F 47% 29.71 in 10.0 mi West 5.8 mph - N/A   Overcast
3:51 AM 82.0 °F 83.1 °F 63.0 °F 52% 29.73 in 10.0 mi West 8.1 mph - N/A   Overcast
4:51 AM 81.0 °F 82.2 °F 63.0 °F 54% 29.75 in 10.0 mi WSW 10.4 mph - N/A   Mostly Cloudy
5:51 AM 78.1 °F - 64.0 °F 62% 29.75 in 10.0 mi West 8.1 mph - N/A   Mostly Cloudy
7:51 AM 81.0 °F 83.0 °F 66.0 °F 60% 29.75 in 10.0 mi WNW 5.8 mph - N/A   Mostly Cloudy
8:51 AM 86.0 °F 86.8 °F 63.0 °F 46% 29.75 in 10.0 mi NW 9.2 mph - N/A   Scattered Clouds
9:51 AM 88.0 °F 87.9 °F 61.0 °F 40% 29.76 in 10.0 mi NW 11.5 mph - N/A   Scattered Clouds
10:51 AM 91.9 °F 91.2 °F 59.0 °F 33% 29.76 in 10.0 mi West 9.2 mph - N/A   Scattered Clouds
11:51 AM 93.0 °F 90.8 °F 54.0 °F 27% 29.75 in 10.0 mi West 9.2 mph 20.7 mph N/A   Scattered Clouds
12:51 PM 93.9 °F 91.7 °F 54.0 °F 26% 29.74 in 10.0 mi West 15.0 mph 21.9 mph N/A   Scattered Clouds
1:51 PM 95.0 °F 92.5 °F 53.1 °F 24% 29.73 in 10.0 mi West 16.1 mph - N/A   Scattered Clouds
2:51 PM 96.1 °F 93.8 °F 54.0 °F 24% 29.72 in 10.0 mi West 15.0 mph 21.9 mph N/A   Scattered Clouds
3:51 PM 96.1 °F 94.8 °F 57.0 °F 27% 29.72 in 10.0 mi West 13.8 mph 23.0 mph N/A   Mostly Cloudy
4:51 PM 93.2 °F 91.3 °F 55.4 °F 28% 29.72 in 10.0 mi WSW 15.0 mph - N/A   Mostly Cloudy
5:51 PM 91.0 °F 90.2 °F 59.0 °F 34% 29.73 in 10.0 mi West 18.4 mph 23.0 mph N/A   Overcast
6:51 PM 89.1 °F 88.2 °F 59.0 °F 36% 29.73 in 10.0 mi West 12.7 mph - N/A   Mostly Cloudy
7:51 PM 88.0 °F 88.4 °F 62.1 °F 42% 29.75 in 10.0 mi WSW 10.4 mph - N/A   Mostly Cloudy
8:51 PM 86.0 °F 86.8 °F 63.0 °F 46% 29.76 in 10.0 mi West 8.1 mph - N/A   Scattered Clouds
9:51 PM 84.0 °F 84.9 °F 63.0 °F 49% 29.78 in 10.0 mi West 9.2 mph - N/A   Scattered Clouds
10:51 PM 82.9 °F 84.0 °F 63.0 °F 51% 29.78 in 10.0 mi West 9.2 mph - N/A   Scattered Clouds
11:51 PM 80.1 °F 81.5 °F 63.0 °F 56% 29.79 in 10.0 mi West 6.9 mph - N/A   Partly Cloudy